Imperial, NE

3:51 AM MDT on May 25, 2017 (GMT -0600)
Imperial Municipal

Weather History for KIML - April, 2012

Change the Weather History Date:

Monday, April 2, 2012

  Actual Average Record
Temperature  
Mean Temperature 52 °F 44 °F  
Max Temperature 62 °F 59 °F 88 °F (2011)
Min Temperature 41 °F 30 °F 6 °F (1975)
Degree Days  
Heating Degree Days 13 21  
Month to date heating degree days 14 42  
Cooling Degree Days 0 0  
Month to date cooling degree days 0 0  
Year to date cooling degree days 1 0  
Growing Degree Days 2 (Base 50)    
Moisture  
Dew Point 32 °F    
Average Humidity 58    
Maximum Humidity 86    
Minimum Humidity 30    
Precipitation  
Precipitation 0.00 in 0.04 in 1.78 in (1988)
Sea Level Pressure  
Sea Level Pressure 29.71 in    
Wind  
Wind Speed 26 mph (North)    
Max Wind Speed 39 mph    
Max Gust Speed 48 mph    
Visibility 10 miles    
Events      
T = Trace of Precipitation, MM = Missing Value Source: NWS Daily Summary

Daily Weather History Graph

Daily Weather History Graph

Search for Another Location

Airport or City:

Trip Planner

Search our weather history database for the weather conditions in past years. The results will help you decide how hot, cold, wet, or windy it might be!

Date:

Astronomy

Apr. 02, 2012 Rise Set
Actual Time 6:27 AM MDT 7:12 PM MDT
Civil Twilight 6:00 AM MDT 7:40 PM MDT
Nautical Twilight 5:27 AM MDT 8:13 PM MDT
Astronomical Twilight 4:53 AM MDT 8:46 PM MDT
Moon 2:49 PM MDT (4/2) 3:43 AM MDT (4/2)
Length of Visible Light 13h 40m
Length of Day
12h 45m
Waxing Gibbous, 79% of the Moon is Illuminated
Apr 2
Waxing Gibbous
Apr 6
Full
Apr 13
Last Quarter
Apr 21
New
Apr 29
First Quarter

Hourly Weather History & Observations

Time (MDT) Temp. Windchill Dew Point Humidity Pressure Visibility Wind Dir Wind Speed Gust Speed Precip Events Conditions
12:53 AM 48.9 °F - 30.0 °F 48% 29.23 in 10.0 mi ESE 3.5 mph - N/A   Clear
1:53 AM 46.9 °F - 30.0 °F 52% 29.23 in 10.0 mi Calm Calm - N/A   Clear
2:53 AM 48.9 °F - 30.0 °F 48% 29.26 in 10.0 mi North 4.6 mph - N/A   Clear
3:53 AM 53.1 °F - 39.9 °F 61% 29.33 in 10.0 mi North 21.9 mph 28.8 mph N/A   Clear
4:53 AM 51.1 °F - 39.0 °F 63% 29.37 in 10.0 mi North 28.8 mph 36.8 mph N/A   Clear
5:53 AM 48.9 °F - 36.0 °F 61% 29.46 in 10.0 mi North 23.0 mph 29.9 mph N/A   Clear
6:53 AM 48.0 °F - 32.0 °F 54% 29.54 in 10.0 mi NNW 20.7 mph 29.9 mph N/A   Clear
7:53 AM 50.0 °F - 30.0 °F 46% 29.59 in 10.0 mi North 20.7 mph 26.5 mph N/A   Clear
8:53 AM 54.0 °F - 30.9 °F 41% 29.60 in 8.0 mi North 38.0 mph 46.0 mph N/A   Mostly Cloudy
9:53 AM 55.0 °F - 30.9 °F 40% 29.64 in 10.0 mi North 34.5 mph 43.7 mph N/A   Overcast
10:53 AM 59.0 °F - 30.9 °F 35% 29.68 in 9.0 mi North 35.7 mph 44.9 mph N/A   Overcast
11:53 AM 60.1 °F - 30.0 °F 32% 29.69 in 10.0 mi NNE 32.2 mph 47.2 mph N/A   Partly Cloudy
12:53 PM 62.1 °F - 30.9 °F 31% 29.75 in 10.0 mi North 29.9 mph 40.3 mph N/A   Clear
2:53 PM 59.0 °F - 34.0 °F 39% 29.83 in 10.0 mi North 29.9 mph 38.0 mph N/A   Clear
3:53 PM 55.9 °F - 30.9 °F 39% 29.85 in 10.0 mi North 34.5 mph 40.3 mph N/A   Mostly Cloudy
4:53 PM 52.0 °F - 28.9 °F 41% 29.88 in 8.0 mi North 33.4 mph 46.0 mph N/A   Overcast
5:53 PM 48.9 °F - 28.9 °F 46% 29.93 in 10.0 mi North 34.5 mph 47.2 mph N/A   Overcast
6:53 PM 48.0 °F - 28.9 °F 48% 29.95 in 10.0 mi North 31.1 mph 39.1 mph N/A   Overcast
7:53 PM 46.0 °F 36.9 °F 30.0 °F 54% 30.01 in 10.0 mi North 28.8 mph 42.6 mph N/A   Overcast
8:53 PM 45.0 °F 35.6 °F 33.1 °F 63% 30.05 in 10.0 mi NNE 27.6 mph 34.5 mph N/A   Overcast
9:04 PM 44.6 °F 35.9 °F 33.8 °F 66% 30.05 in 10.0 mi NNE 23.0 mph 32.2 mph N/A   Overcast
9:53 PM 43.0 °F 32.9 °F 35.1 °F 74% 30.07 in 10.0 mi North 27.6 mph 33.4 mph N/A   Overcast
10:53 PM 41.0 °F 31.4 °F 37.9 °F 89% 30.05 in 8.0 mi North 21.9 mph 31.1 mph N/A   Overcast
11:53 PM 41.0 °F 31.9 °F 37.0 °F 86% 30.06 in 10.0 mi North 19.6 mph 27.6 mph N/A   Overcast